Location: Unspecified
(41.5516°N, 88.1098°W)
Time: 18:29:26
(UTC-05:00)

Okean 3 - Visible Passes

Search period start: 23 April 2017 00:00
Search period end: 03 May 2017 00:00
Orbit: 577 x 604 km, 82.5° (Epoch: 22 April)

Date Brightness Start Highest point End Pass type
(mag) Time Alt. Az. Time Alt. Az. Time Alt. Az.
23 Apr 6.2 00:23:41 16° N 00:23:41 16° N 00:24:39 10° N visible
24 Apr 6.2 00:31:41 16° NNW 00:31:41 16° NNW 00:32:41 10° NNW visible
24 Apr 6.0 23:03:09 13° NE 23:03:09 13° NE 23:03:44 10° NNE visible
25 Apr 6.3 00:39:41 14° NNW 00:39:41 14° NNW 00:40:32 10° NNW visible
25 Apr 5.8 23:11:07 18° NNE 23:11:07 18° NNE 23:12:16 10° NNE visible
26 Apr 6.4 00:47:39 11° NW 00:47:39 11° NW 00:48:03 10° NW visible
26 Apr 5.5 23:19:04 23° NNE 23:19:04 23° NNE 23:20:40 10° NNE visible
27 Apr 5.4 23:27:00 27° N 23:27:00 27° N 23:28:57 10° N visible
28 Apr 5.4 23:34:55 28° NNW 23:34:55 28° NNW 23:37:08 10° N visible
29 Apr 5.6 22:06:16 15° NE 22:06:16 15° NE 22:07:24 10° NE visible
29 Apr 5.5 23:42:47 25° NW 23:42:47 25° NW 23:45:10 10° NNW visible
30 Apr 5.1 22:14:07 22° NE 22:14:07 22° NE 22:16:10 10° NNE visible
30 Apr 5.7 23:50:39 20° NW 23:50:39 20° NW 23:53:03 10° NNW visible
01 May 4.5 22:21:58 34° NE 22:21:58 34° NE 22:24:43 10° NNE visible
01 May 6.1 23:58:28 15° WNW 23:58:28 15° WNW 00:00:36 10° NW visible
02 May 3.8 22:29:45 53° NE 22:29:45 53° NE 22:33:07 10° NNE visible
